Regional Weather Roundup
Issued by NWS Cleveland, OH

Home | Current Version | Previous Version | Graphics & Text | Print | Product List | Glossary On
Versions: 1 2 3 4 5 6 7 8 9 10 11 12 13 14 15 16 17 18 19 20 21 22 23 24 25 26 27 28 29 30 31 32 33 34 35 36 37 38 39 40 41 42 43 44 45 46 47 48 49 50
000
ASUS41 KCLE 292202
RWRCLE
OHIO REGIONAL WEATHER ROUNDUP
NATIONAL WEATHER SERVICE CLEVELAND, OH
600 PM EDT FRI APR 29 2016

NOTE: "FAIR" INDICATES FEW OR NO CLOUDS BELOW 12,000 FEET WITH NO
SIGNIFICANT WEATHER AND/OR OBSTRUCTIONS TO VISIBILITY.

OHZ001>008-015>018-024>027-034-035-043-044-292300-
   NORTHWEST OHIO

CITY           SKY/WX    TMP DP  RH WIND       PRES   REMARKS
DEFIANCE       CLOUDY    57  41  55 CALM      30.09R
FINDLAY        CLOUDY    53  41  63 E8        30.08R
TOLEDO EXPRESS CLOUDY    51  39  63 E9        30.09R
TOLEDO EXEC    CLOUDY    49  39  68 E8        30.12R
LIMA           CLOUDY    52  46  80 N7        30.08R
$$

OHZ009>014-019>023-028>033-038-089-292300-
   NORTHEAST OHIO

CITY           SKY/WX    TMP DP  RH WIND       PRES   REMARKS
CLE-HOPKINS    CLOUDY    45  39  79 N10       30.12R
CLE-LAKEFRONT  LGT RAIN  46  40  79 N16       30.08R
CUY CO. ARPT   CLOUDY    46  41  81 E14       30.08R
LORAIN-ELYRIA  CLOUDY    43  38  82 NE8       30.10R
ASHTABULA      CLOUDY    42  38  85 N7        30.07S
AKRON-CANTON   CLOUDY    48  42  80 NW9       30.06R
WOOSTER        CLOUDY    46  43  89 N8        30.08R
MANSFIELD      CLOUDY    47  42  83 N7        30.08R
YOUNGSTOWN     CLOUDY    46  44  93 NW9       30.05R
$$

OHZ042-051>053-060>062-070>072-077>081-292300-
  SOUTHWEST OHIO

CITY           SKY/WX    TMP DP  RH WIND       PRES   REMARKS
CINC-COVINGTON CLOUDY    66  47  50 NW6       30.02S
CINC-LUNKEN    CLOUDY    66  50  56 N6        30.01S
HAMILTON       CLOUDY    66  49  54 N5        30.03S
DAYTON         CLOUDY    58  48  69 N9        30.06R
WRIGHT-PAT AFB NOT AVBL
DAYTON GENERAL MOSUNNY   62  46  55 N9        30.02R
WILMINGTON     CLOUDY    61  49  64 N8        30.02S
$$

OHZ036-037-039>041-045>050-054>059-063>069-073>076-082>088-292300-
  CENTRAL AND SOUTHEAST OHIO

CITY           SKY/WX    TMP DP  RH WIND       PRES   REMARKS
COLUMBUS       CLOUDY    56  47  71 N10       30.04S
OSU AIRPORT    CLOUDY    56  47  71 N7        30.05S
BOLTON FIELD   MOSUNNY   57  50  77 NW7       30.04F
RICKENBACK AFB MOSUNNY   58  48  68 N10       30.03S
NEWARK         CLOUDY    59  47  64 N7        30.04S
MARION         CLOUDY    52  44  74 N9        30.08R
LANCASTER      CLOUDY    61  50  67 N9        30.03F
ZANESVILLE     CLOUDY    60  48  64 N12       30.04R
NEW PHILLY     CLOUDY    52  45  77 NW7       30.06R
$$




USA.gov is the U.S. government's official web portal to all federal, state and local government web resources and services.